Retour au catalogue

STARLINK-37194

ActifCommunicationsSSO
NORAD 68397·PAYLOAD·🇺🇸 United States

Lancé Mar 26, 2026 depuis Vandenberg Space Force Base

Loading…

Prochains Passages (prochaines 24 heures)

TLE

FraisSource: CelesTrak SupGP

Époque: Sep 14, 2026, 23:01 UTC

1 68397C 26063T   26257.95951389 -.00028471  00000+0 -88373-3 0  2573
2 68397  97.2858  38.9058 0001120 105.9922 125.7053 15.33457265    14

Suivez STARLINK-37194 en temps réel avec AllMySat

Download on the App Store